TimeAKST,TemperatureF,Dew PointF,Humidity,Sea Level PressureIn,VisibilityMPH,Wind Direction,Wind SpeedMPH,Gust SpeedMPH,PrecipitationIn,Events,Conditions,WindDirDegrees,DateUTC
12:53 AM,-5.1,-9.9,80,29.81,10.0,Calm,Calm,-,N/A,,Clear,0,2013-12-27 09:53:00
1:53 AM,-4.0,-9.0,79,29.81,10.0,Calm,Calm,-,N/A,,Clear,0,2013-12-27 10:53:00
2:53 AM,-2.0,-6.0,83,29.82,10.0,Calm,Calm,-,N/A,,Clear,0,2013-12-27 11:53:00
3:53 AM,-2.9,-8.0,79,29.85,10.0,Calm,Calm,-,N/A,,Clear,0,2013-12-27 12:53:00
4:53 AM,-5.1,-9.9,80,29.85,10.0,Calm,Calm,-,N/A,,Clear,0,2013-12-27 13:53:00
5:53 AM,-7.1,-11.0,83,29.87,10.0,Calm,Calm,-,N/A,,Clear,0,2013-12-27 14:53:00
6:53 AM,-7.1,-11.0,83,29.88,10.0,Calm,Calm,-,N/A,,Clear,0,2013-12-27 15:53:00
7:53 AM,-8.0,-11.9,83,29.88,10.0,Calm,Calm,-,N/A,,Clear,0,2013-12-27 16:53:00
8:53 AM,-8.0,-11.9,83,29.90,10.0,Calm,Calm,-,N/A,,Clear,0,2013-12-27 17:53:00
9:53 AM,-8.0,-13.0,79,29.92,10.0,Calm,Calm,-,N/A,,Scattered Clouds,0,2013-12-27 18:53:00
10:53 AM,-7.1,-11.9,79,29.94,10.0,Calm,Calm,-,N/A,,Clear,0,2013-12-27 19:53:00
11:31 AM,-9.4,-13.0,84,29.92,2.5,Calm,Calm,-,N/A,,Overcast,0,2013-12-27 20:31:00
11:44 AM,-7.6,-11.2,84,29.92,10.0,Calm,Calm,-,N/A,,Mostly Cloudy,0,2013-12-27 20:44:00
11:53 AM,-5.1,-9.0,83,29.95,10.0,Calm,Calm,-,N/A,,Mostly Cloudy,0,2013-12-27 20:53:00
12:53 PM,-4.0,-9.0,79,29.98,10.0,Calm,Calm,-,N/A,,Mostly Cloudy,0,2013-12-27 21:53:00
1:53 PM,-0.9,-4.0,87,29.99,10.0,Calm,Calm,-,N/A,,Overcast,0,2013-12-27 22:53:00
2:53 PM,1.0,-2.9,83,29.96,10.0,Calm,Calm,-,N/A,,Overcast,0,2013-12-27 23:53:00
3:53 PM,3.0,-0.9,84,29.96,10.0,SE,4.6,-,N/A,,Overcast,130,2013-12-28 00:53:00
4:53 PM,3.9,1.0,88,29.98,10.0,Calm,Calm,-,N/A,,Overcast,0,2013-12-28 01:53:00
5:53 PM,3.9,-0.0,84,29.98,10.0,Calm,Calm,-,N/A,,Overcast,0,2013-12-28 02:53:00
6:53 PM,5.0,1.0,84,29.98,10.0,East,3.5,-,N/A,,Overcast,100,2013-12-28 03:53:00
7:53 PM,6.1,1.9,83,29.99,10.0,SSE,3.5,-,N/A,,Overcast,150,2013-12-28 04:53:00
8:53 PM,7.0,3.0,84,29.99,10.0,Calm,Calm,-,N/A,,Overcast,0,2013-12-28 05:53:00
9:53 PM,8.1,3.0,80,29.97,10.0,East,3.5,-,N/A,,Overcast,80,2013-12-28 06:53:00
10:53 PM,8.1,3.9,83,29.97,10.0,ESE,5.8,-,N/A,,Overcast,110,2013-12-28 07:53:00
11:53 PM,8.1,3.9,83,29.98,10.0,Calm,Calm,-,N/A,,Overcast,0,2013-12-28 08:53:00